When you browse on this site, cookies collect data to enhance your experience and personalize the content and advertising you see.
Visit our Privacy Policy to learn more. By continuing to use the site, you agree to this use of cookies and data.
  • En España
  • Lista de países
  • Para 7 días
  • Temperatura del agua
  • Mapa Satelital
  • El tiempo en el mapa
  • Informadores
  • user-avatar
    Iniciar sesión

    Tiempo cada hora Tucson

    Hoy, 19 Junio, Miércoles

    Tiempo Temperatura Precipitaciones Viento Presión Humedad
    00:00 +25°C° 0 mm 2 mps 696 mmHg 15%
    01:00 +24°C° 0 mm 1 mps 696 mmHg 16%
    02:00 +24°C° 0 mm 1 mps 696 mmHg 16%
    03:00 +23°C° 0 mm 1 mps 695 mmHg 17%
    04:00 +23°C° 0 mm 1 mps 695 mmHg 17%
    05:00 +22°C° 0 mm 1 mps 695 mmHg 17%
    06:00 +25°C° 0 mm 1 mps 696 mmHg 14%
    07:00 +27°C° 0 mm 1 mps 697 mmHg 12%
    08:00 +30°C° 0 mm 1 mps 697 mmHg 9%
    09:00 +31°C° 0 mm 1 mps 697 mmHg 9%
    10:00 +33°C° 0 mm 1 mps 697 mmHg 8%
    11:00 +35°C° 0 mm 2 mps 697 mmHg 7%
    12:00 +36°C° 0 mm 2 mps 697 mmHg 6%
    13:00 +37°C° 0 mm 2 mps 696 mmHg 6%
    14:00 +38°C° 0 mm 3 mps 696 mmHg 5%
    15:00 +38°C° 0 mm 3 mps 696 mmHg 5%
    16:00 +40°C° 0 mm 4 mps 695 mmHg 5%
    17:00 +40°C° 0 mm 4 mps 695 mmHg 5%
    18:00 +37°C° 0 mm 4 mps 695 mmHg 6%
    19:00 +35°C° 0 mm 4 mps 695 mmHg 7%
    20:00 +32°C° 0 mm 4 mps 695 mmHg 8%
    21:00 +29°C° 0 mm 3 mps 695 mmHg 11%
    22:00 +28°C° 0 mm 2 mps 695 mmHg 15%
    23:00 +26°C° 0 mm 1 mps 695 mmHg 18%

    Mañana, 20 Junio, Jueves

    Tiempo Temperatura Precipitaciones Viento Presión Humedad
    00:00 +25°C° 0 mm 1 mps 695 mmHg 19%
    01:00 +24°C° 0 mm 1 mps 695 mmHg 20%
    02:00 +24°C° 0 mm 1 mps 695 mmHg 20%
    03:00 +24°C° 0 mm 1 mps 694 mmHg 20%
    04:00 +23°C° 0 mm 1 mps 694 mmHg 20%
    05:00 +23°C° 0 mm 1 mps 694 mmHg 20%
    06:00 +25°C° 0 mm 1 mps 695 mmHg 17%
    07:00 +28°C° 0 mm 1 mps 696 mmHg 14%
    08:00 +31°C° 0 mm 1 mps 696 mmHg 11%
    09:00 +32°C° 0 mm 2 mps 696 mmHg 10%
    10:00 +35°C° 0 mm 2 mps 696 mmHg 9%
    11:00 +36°C° 0 mm 3 mps 696 mmHg 7%
    12:00 +37°C° 0 mm 4 mps 696 mmHg 7%
    13:00 +40°C° 0 mm 5 mps 696 mmHg 6%
    14:00 +41°C° 0 mm 6 mps 695 mmHg 5%
    15:00 +41°C° 0 mm 6 mps 695 mmHg 5%
    16:00 +41°C° 0 mm 7 mps 694 mmHg 5%
    17:00 +41°C° 0 mm 8 mps 694 mmHg 5%
    18:00 +38°C° 0 mm 7 mps 693 mmHg 6%
    19:00 +35°C° 0 mm 6 mps 693 mmHg 8%
    20:00 +32°C° 0 mm 5 mps 693 mmHg 9%
    21:00 +29°C° 0 mm 4 mps 693 mmHg 11%
    22:00 +27°C° 0 mm 3 mps 693 mmHg 13%
    23:00 +26°C° 0 mm 2 mps 693 mmHg 15%

    Pasado mañana, 21 Junio, Viernes

    Tiempo Temperatura Precipitaciones Viento Presión Humedad
    00:00 +25°C° 0 mm 2 mps 693 mmHg 15%
    01:00 +24°C° 0 mm 2 mps 693 mmHg 16%
    02:00 +23°C° 0 mm 2 mps 693 mmHg 17%
    03:00 +23°C° 0 mm 2 mps 693 mmHg 17%
    04:00 +21°C° 0 mm 2 mps 692 mmHg 18%
    05:00 +21°C° 0 mm 2 mps 692 mmHg 18%
    06:00 +25°C° 0 mm 2 mps 693 mmHg 16%
    07:00 +27°C° 0 mm 2 mps 694 mmHg 14%
    08:00 +30°C° 0 mm 3 mps 694 mmHg 12%
    09:00 +31°C° 0 mm 3 mps 694 mmHg 10%
    10:00 +34°C° 0 mm 4 mps 694 mmHg 9%
    11:00 +36°C° 0 mm 5 mps 694 mmHg 8%
    12:00 +38°C° 0 mm 6 mps 694 mmHg 8%
    13:00 +39°C° 0 mm 7 mps 694 mmHg 8%
    14:00 +40°C° 0 mm 8 mps 693 mmHg 8%
    15:00 +40°C° 0 mm 8 mps 693 mmHg 9%
    16:00 +39°C° 0 mm 8 mps 692 mmHg 10%
    17:00 +39°C° 0 mm 8 mps 692 mmHg 11%
    18:00 +37°C° 0 mm 8 mps 692 mmHg 14%
    19:00 +34°C° 0 mm 8 mps 692 mmHg 18%
    20:00 +30°C° 0 mm 7 mps 692 mmHg 21%
    21:00 +29°C° 0 mm 6 mps 692 mmHg 25%
    22:00 +27°C° 0 mm 5 mps 692 mmHg 29%
    23:00 +25°C° 0 mm 4 mps 693 mmHg 34%

    22 Junio, Sábado

    Tiempo Temperatura Precipitaciones Viento Presión Humedad
    00:00 +23°C° 0 mm 4 mps 692 mmHg 36%
    01:00 +24°C° 0 mm 3 mps 692 mmHg 38%
    02:00 +22°C° 0 mm 3 mps 692 mmHg 40%
    03:00 +22°C° 0 mm 3 mps 692 mmHg 41%
    04:00 +21°C° 0 mm 3 mps 692 mmHg 41%
    05:00 +21°C° 0 mm 3 mps 692 mmHg 42%
    06:00 +23°C° 0 mm 4 mps 693 mmHg 35%
    07:00 +26°C° 0 mm 5 mps 693 mmHg 28%
    08:00 +28°C° 0 mm 6 mps 694 mmHg 21%
    09:00 +30°C° 0 mm 7 mps 694 mmHg 17%
    10:00 +32°C° 0 mm 9 mps 694 mmHg 14%
    11:00 +34°C° 0 mm 11 mps 694 mmHg 10%
    12:00 +36°C° 0 mm 11 mps 694 mmHg 10%
    13:00 +36°C° 0 mm 10 mps 694 mmHg 10%
    14:00 +37°C° 0 mm 10 mps 694 mmHg 10%
    15:00 +37°C° 0 mm 10 mps 694 mmHg 11%
    16:00 +35°C° 0 mm 9 mps 693 mmHg 12%
    17:00 +35°C° 0 mm 9 mps 693 mmHg 12%
    18:00 +34°C° 0 mm 7 mps 694 mmHg 13%
    19:00 +32°C° 0 mm 6 mps 694 mmHg 16%
    20:00 +29°C° 0 mm 5 mps 694 mmHg 19%
    21:00 +27°C° 0 mm 4 mps 694 mmHg 22%
    22:00 +26°C° 0 mm 3 mps 694 mmHg 26%
    23:00 +24°C° 0 mm 2 mps 694 mmHg 30%

    23 Junio, Domingo

    Tiempo Temperatura Precipitaciones Viento Presión Humedad
    00:00 +24°C° 0 mm 1 mps 694 mmHg 31%
    01:00 +23°C° 0 mm 1 mps 694 mmHg 33%
    02:00 +22°C° 0 mm 1 mps 694 mmHg 35%
    03:00 +22°C° 0 mm 1 mps 694 mmHg 37%
    04:00 +21°C° 0 mm 1 mps 694 mmHg 38%
    05:00 +21°C° 0 mm 1 mps 694 mmHg 39%
    06:00 +23°C° 0 mm 1 mps 695 mmHg 34%
    07:00 +26°C° 0 mm 1 mps 695 mmHg 29%
    08:00 +28°C° 0 mm 1 mps 696 mmHg 24%
    09:00 +30°C° 0 mm 1 mps 696 mmHg 21%
    10:00 +31°C° 0 mm 1 mps 696 mmHg 17%
    11:00 +33°C° 0 mm 1 mps 696 mmHg 14%
    12:00 +35°C° 0 mm 2 mps 696 mmHg 13%
    13:00 +36°C° 0 mm 2 mps 695 mmHg 11%
    14:00 +36°C° 0 mm 3 mps 695 mmHg 10%
    15:00 +37°C° 0 mm 3 mps 694 mmHg 9%
    16:00 +37°C° 0 mm 3 mps 694 mmHg 8%
    17:00 +37°C° 0 mm 3 mps 693 mmHg 8%
    18:00 +35°C° 0 mm 4 mps 693 mmHg 9%
    19:00 +33°C° 0 mm 4 mps 693 mmHg 10%
    20:00 +30°C° 0 mm 4 mps 693 mmHg 11%
    21:00 +28°C° 0 mm 3 mps 693 mmHg 13%
    22:00 +27°C° 0 mm 2 mps 694 mmHg 14%
    23:00 +26°C° 0 mm 1 mps 694 mmHg 15%

    24 Junio, Lunes

    Tiempo Temperatura Precipitaciones Viento Presión Humedad
    00:00 +25°C° 0 mm 1 mps 693 mmHg 16%
    01:00 +25°C° 0 mm 1 mps 693 mmHg 17%
    02:00 +24°C° 0 mm 1 mps 693 mmHg 18%
    03:00 +23°C° 0 mm 1 mps 693 mmHg 18%
    04:00 +21°C° 0 mm 0 mps 693 mmHg 19%
    05:00 +20°C° 0 mm 0 mps 693 mmHg 20%
    06:00 +25°C° 0 mm 1 mps 694 mmHg 17%
    07:00 +28°C° 0 mm 1 mps 694 mmHg 14%
    08:00 +31°C° 0 mm 1 mps 695 mmHg 11%
    09:00 +33°C° 0 mm 1 mps 695 mmHg 10%
    10:00 +35°C° 0 mm 1 mps 695 mmHg 9%
    11:00 +36°C° 0 mm 1 mps 695 mmHg 8%
    12:00 +37°C° 0 mm 1 mps 695 mmHg 7%
    13:00 +39°C° 0 mm 2 mps 695 mmHg 7%
    14:00 +40°C° 0 mm 3 mps 694 mmHg 6%
    15:00 +41°C° 0 mm 4 mps 694 mmHg 6%
    16:00 +42°C° 0 mm 5 mps 694 mmHg 5%
    17:00 +42°C° 0 mm 6 mps 693 mmHg 5%
    18:00 +39°C° 0 mm 5 mps 693 mmHg 7%
    19:00 +36°C° 0 mm 5 mps 693 mmHg 8%
    20:00 +33°C° 0 mm 5 mps 693 mmHg 10%
    21:00 +30°C° 0 mm 4 mps 693 mmHg 13%
    22:00 +28°C° 0 mm 3 mps 693 mmHg 16%
    23:00 +26°C° 0 mm 1 mps 694 mmHg 19%
    Mostrar más